| time (UTC) | temp C | wind direction | speed KPH | gust KPH | rain 1hr cm | rain 24hr cm | rain mn cm | humidity % | barometer mb |
| 20260902143056 | 26 | 323 | 1.6 | 8.0 | 0.00 | 0.00 | 0.00 | 81 | 1012.8 |
| 20260902141555 | 25 | 320 | 1.6 | 8.0 | 0.00 | 0.00 | 0.00 | 83 | 1012.8 |
| 20260902140054 | 25 | 315 | 0.0 | 8.0 | 0.00 | 0.00 | 0.00 | 83 | 1012.7 |
| 20260902134558 | 25 | 355 | 0.0 | 4.8 | 0.00 | 0.00 | 0.00 | 84 | 1012.6 |
| 20260902133105 | 25 | 9 | 0.0 | 6.4 | 0.00 | 0.00 | 0.00 | 84 | 1012.4 |
| 20260902131601 | 24 | 342 | 0.0 | 4.8 | 0.00 | 0.00 | 0.00 | 85 | 1012.2 |
| 20260902130052 | 24 | 355 | 0.0 | 4.8 | 0.00 | 0.00 | 0.00 | 85 | 1011.9 |
| 20260902124552 | 24 | 355 | 0.0 | 4.8 | 0.00 | 0.00 | 0.00 | 85 | 1011.8 |
| 20260902123106 | 25 | 10 | 0.0 | 3.2 | 0.00 | 0.00 | 0.00 | 85 | 1011.8 |
| 20260902121557 | 25 | 360 | 0.0 | 4.8 | 0.00 | 0.00 | 0.00 | 85 | 1011.9 |
| 20260902120103 | 25 | 355 | 0.0 | 1.6 | 0.00 | 0.00 | 0.00 | 86 | 1011.8 |
| 20260902114546 | 25 | 355 | 0.0 | 3.2 | 0.00 | 0.00 | 0.00 | 85 | 1011.8 |
| 20260902113046 | 25 | 342 | 0.0 | 4.8 | 0.00 | 0.00 | 0.00 | 86 | 1011.8 |
| 20260902111554 | 25 | 326 | 0.0 | 3.2 | 0.00 | 0.00 | 0.00 | 86 | 1012.0 |
| 20260902110044 | 25 | 314 | 0.0 | 4.8 | 0.00 | 0.00 | 0.00 | 86 | 1011.9 |
| 20260902104540 | 26 | 333 | 0.0 | 3.2 | 0.00 | 0.00 | 0.00 | 86 | 1011.9 |
| 20260902103037 | 26 | 348 | 0.0 | 4.8 | 0.00 | 0.00 | 0.00 | 86 | 1012.1 |
| 20260902101537 | 26 | 349 | 0.0 | 4.8 | 0.00 | 0.00 | 0.00 | 85 | 1012.2 |
| 20260902100036 | 26 | 336 | 0.0 | 4.8 | 0.00 | 0.00 | 0.00 | 85 | 1012.3 |
| 20260902094531 | 26 | 342 | 0.0 | 4.8 | 0.00 | 0.00 | 0.00 | 85 | 1012.5 |
| 20260902093028 | 27 | 198 | 0.0 | 3.2 | 0.00 | 0.00 | 0.00 | 85 | 1012.6 |
| 20260902091525 | 27 | 198 | 0.0 | 4.8 | 0.00 | 0.00 | 0.00 | 84 | 1012.7 |
| 20260902090023 | 28 | 198 | 0.0 | 0.0 | 0.00 | 0.00 | 0.00 | 83 | 1012.7 |
| 20260902084521 | 28 | 198 | 0.0 | 1.6 | 0.00 | 0.00 | 0.00 | 83 | 1012.7 |
| 20260902083019 | 28 | 198 | 0.0 | 3.2 | 0.00 | 0.00 | 0.00 | 83 | 1012.9 |
| 20260902081517 | 28 | 198 | 0.0 | 3.2 | 0.00 | 0.00 | 0.00 | 82 | 1013.0 |
| 20260902080019 | 28 | 196 | 0.0 | 1.6 | 0.00 | 0.00 | 0.00 | 82 | 1013.2 |
| 20260902074515 | 28 | 196 | 0.0 | 3.2 | 0.00 | 0.00 | 0.00 | 82 | 1013.2 |
| 20260902073013 | 28 | 192 | 0.0 | 9.7 | 0.00 | 0.00 | 0.00 | 82 | 1013.3 |
| 20260902071518 | 28 | 206 | 0.0 | 3.2 | 0.00 | 0.00 | 0.00 | 82 | 1013.2 |
| 20260902070011 | 28 | 185 | 0.0 | 3.2 | 0.00 | 0.00 | 0.00 | 82 | 1013.3 |
| 20260902064511 | 28 | 183 | 0.0 | 4.8 | 0.00 | 0.00 | 0.00 | 82 | 1013.4 |
| 20260902063012 | 28 | 181 | 0.0 | 4.8 | 0.00 | 0.00 | 0.00 | 81 | 1013.5 |
| 20260902061510 | 28 | 206 | 0.0 | 3.2 | 0.00 | 0.00 | 0.00 | 80 | 1013.4 |
| 20260902060009 | 28 | 206 | 0.0 | 3.2 | 0.00 | 0.00 | 0.00 | 80 | 1013.4 |
| 20260902054512 | 28 | 206 | 0.0 | 0.0 | 0.00 | 0.00 | 0.00 | 79 | 1013.4 |
| 20260902053010 | 28 | 206 | 0.0 | 3.2 | 0.00 | 0.00 | 0.00 | 79 | 1013.5 |
| 20260902051508 | 29 | 204 | 0.0 | 0.0 | 0.00 | 0.00 | 0.00 | 79 | 1013.7 |
| 20260902050023 | 29 | 204 | 0.0 | 1.6 | 0.00 | 0.00 | 0.00 | 78 | 1013.7 |
| 20260902044507 | 29 | 204 | 0.0 | 3.2 | 0.00 | 0.00 | 0.00 | 78 | 1013.7 |
| 20260902043018 | 29 | 204 | 0.0 | 1.6 | 0.00 | 0.00 | 0.00 | 77 | 1013.5 |
| 20260902041505 | 29 | 202 | 0.0 | 1.6 | 0.00 | 0.00 | 0.00 | 77 | 1013.4 |
| 20260902040002 | 30 | 203 | 0.0 | 6.4 | 0.00 | 0.00 | 0.00 | 77 | 1013.3 |
| 20260902034501 | 30 | 194 | 0.0 | 8.0 | 0.00 | 0.00 | 0.00 | 77 | 1013.0 |
| 20260902033100 | 30 | 180 | 3.2 | 8.0 | 0.00 | 0.00 | 0.00 | 77 | 1012.8 |
| 20260902031612 | 30 | 172 | 3.2 | 9.7 | 0.00 | 0.00 | 0.00 | 76 | 1012.4 |
| 20260902030059 | 30 | 174 | 1.6 | 8.0 | 0.00 | 0.00 | 0.00 | 76 | 1012.2 |
| 20260902024605 | 30 | 191 | 1.6 | 8.0 | 0.00 | 0.00 | 0.00 | 76 | 1012.0 |
| 20260902023104 | 30 | 175 | 3.2 | 14.5 | 0.00 | 0.00 | 0.00 | 76 | 1011.6 |
| 20260902021611 | 30 | 181 | 6.4 | 11.3 | 0.00 | 0.00 | 0.00 | 76 | 1011.4 |
| 20260902020112 | 30 | 159 | 3.2 | 17.7 | 0.00 | 0.00 | 0.00 | 75 | 1011.2 |
| 20260902014557 | 30 | 210 | 4.8 | 11.3 | 0.00 | 0.00 | 0.00 | 75 | 1011.3 |
| 20260902013057 | 30 | 190 | 3.2 | 11.3 | 0.00 | 0.00 | 0.00 | 74 | 1011.2 |
| 20260902011556 | 30 | 193 | 4.8 | 11.3 | 0.00 | 0.00 | 0.00 | 73 | 1011.1 |
| 20260902010055 | 31 | 130 | 3.2 | 12.9 | 0.00 | 0.00 | 0.00 | 71 | 1010.9 |
| 20260902004555 | 31 | 109 | 3.2 | 11.3 | 0.00 | 0.00 | 0.00 | 70 | 1010.8 |
| 20260902003055 | 31 | 189 | 3.2 | 12.9 | 0.00 | 0.00 | 0.00 | 67 | 1010.6 |
| 20260902001556 | 31 | 159 | 4.8 | 14.5 | 0.00 | 0.00 | 0.00 | 67 | 1010.5 |
| 20260902000054 | 32 | 164 | 8.0 | 14.5 | 0.00 | 0.00 | 0.00 | 66 | 1010.3 |
| 20260901234556 | 32 | 113 | 4.8 | 17.7 | 0.00 | 0.00 | 0.00 | 67 | 1010.3 |
| 20260901233052 | 32 | 170 | 4.8 | 16.1 | 0.00 | 0.00 | 0.00 | 67 | 1010.2 |
| 20260901231555 | 32 | 162 | 3.2 | 16.1 | 0.00 | 0.00 | 0.00 | 67 | 1010.0 |
| 20260901230103 | 32 | 148 | 4.8 | 19.3 | 0.00 | 0.00 | 0.00 | 68 | 1010.0 |
| 20260901224552 | 32 | 173 | 6.4 | 14.5 | 0.00 | 0.00 | 0.00 | 68 | 1009.9 |
| 20260901223102 | 32 | 101 | 4.8 | 17.7 | 0.00 | 0.00 | 0.00 | 68 | 1010.0 |
| 20260901221549 | 32 | 130 | 4.8 | 17.7 | 0.00 | 0.00 | 0.00 | 67 | 1010.2 |
| 20260901220106 | 32 | 109 | 6.4 | 24.1 | 0.00 | 0.00 | 0.00 | 70 | 1010.3 |
| 20260901214547 | 32 | 138 | 4.8 | 17.7 | 0.00 | 0.18 | 0.00 | 70 | 1010.3 |
| 20260901213049 | 32 | 115 | 8.0 | 17.7 | 0.00 | 0.18 | 0.00 | 71 | 1010.4 |
| 20260901211543 | 32 | 164 | 4.8 | 17.7 | 0.00 | 0.18 | 0.00 | 72 | 1010.6 |
| 20260901210040 | 32 | 127 | 4.8 | 17.7 | 0.00 | 0.18 | 0.00 | 69 | 1010.9 |
| 20260901204541 | 32 | 204 | 8.0 | 19.3 | 0.00 | 0.84 | 0.00 | 72 | 1011.0 |
| 20260901203039 | 32 | 194 | 8.0 | 22.5 | 0.00 | 0.84 | 0.00 | 71 | 1011.1 |
| 20260901201545 | 32 | 201 | 6.4 | 17.7 | 0.00 | 0.84 | 0.00 | 73 | 1011.3 |
| 20260901200035 | 32 | 119 | 8.0 | 20.9 | 0.00 | 0.84 | 0.00 | 71 | 1011.4 |
| 20260901194537 | 32 | 104 | 6.4 | 17.7 | 0.00 | 0.84 | 0.00 | 73 | 1011.6 |
| 20260901193035 | 32 | 150 | 6.4 | 14.5 | 0.00 | 0.84 | 0.00 | 73 | 1011.9 |
| 20260901191538 | 32 | 144 | 4.8 | 16.1 | 0.00 | 0.84 | 0.00 | 73 | 1012.1 |